[[{"header":{"parameterUnit":"m.s-1","parameterCategory":1,"la1":30.2991,"la2":30.254,"lo1":-89.0895,"lo2":-89.0444,"dy":0.0017,"dx":0.0017,"nx":28,"ny":28,"refTime":"2024-04-12T03:00:00:Z","depth":0,"parameterNumber":2,"parameterNumberName":"U-component_of_WINDS"},"data":[0,0,0,0,0,0,0,0,0,0,0,0,0,0,0,0,0,0,0,0,0,0,0,0,0,0,0,0,0,0,0,0,0,0,0,0,0,0,0,0,0,0,0,0,0,0,0,0,0,0,0,0,0,0,0,0,0,0,1.2632,1.2632,0,1.2603,1.2603,1.2602,1.2565,1.2564,1.2563,1.2563,1.2532,1.2532,1.2532,0,0,0,0,0,0,0,0,0,0,0,0,0,1.2655,1.2655,1.2632,1.2632,1.2631,1.2603,1.2603,1.2602,1.2565,1.2564,1.2563,1.2563,1.2532,1.2532,1.2532,0,0,0,0,0,0,0,0,0,0,0,0,0,1.2638,1.2655,1.2632,1.2609,1.2607,1.2603,1.2603,1.2602,1.2565,1.2564,1.2563,1.2562,1.2533,1.2532,1.2532,1.2548,0,0,1.2531,1.2531,0,0,0,0,0,0,0,0,1.2639,1.2637,1.2613,1.2611,1.2608,1.2587,1.26,1.2584,1.2565,1.2581,1.2563,1.2562,1.2551,1.2549,1.2546,1.2547,1.2545,1.2531,1.2531,1.253,1.253,0,0,0,0,0,0,0,1.264,1.2638,1.2621,1.2613,1.261,1.26,1.2597,1.2597,1.2571,1.2579,1.2577,1.2574,1.255,1.2546,1.2545,1.2545,1.2531,1.253,1.253,1.253,1.2559,1.256,0,0,0,0,0,0,1.2645,1.2639,1.2621,1.262,1.2622,1.2601,1.2597,1.2594,1.2571,1.2567,1.2575,1.2572,1.2547,1.2545,1.2544,1.2562,1.253,1.253,1.253,1.2558,1.2559,1.256,0,0,0,0,0,0,1.2645,1.2643,1.2623,1.2629,1.2625,1.2601,1.2599,1.2594,1.2591,1.2568,1.2563,1.2576,1.2546,1.2544,1.2548,1.256,1.253,1.253,1.2557,1.2558,1.256,1.2597,0,0,0,0,0,0,1.2646,1.2644,1.265,1.2629,1.2625,1.2627,1.26,1.2594,1.259,1.2587,1.2567,1.2563,1.2545,1.2548,1.2547,1.2559,1.2529,1.2555,1.2557,1.2559,1.2595,1.26,1.2604,0,0,0,0,0,1.2647,1.2661,1.265,1.2648,1.2632,1.2628,1.2626,1.2605,1.2592,1.2597,1.2583,1.2564,1.2559,1.2549,1.2547,1.2559,1.2555,1.2557,1.2559,1.2593,1.2599,1.2604,0,0,0,0,0,0,1.2683,1.2658,1.2645,1.2653,1.2643,1.2622,1.2628,1.2612,1.2605,1.2602,1.2577,1.2573,1.258,1.257,1.2559,1.2574,1.2554,1.2556,1.258,1.2586,1.2591,1.2593,1.2529,0,0,0,0,0,1.2692,1.2691,1.2669,1.2678,1.2674,1.2652,1.2649,1.2635,1.2623,1.2618,1.2604,1.2593,1.2589,1.2587,1.2582,1.2594,1.2589,1.2601,1.2606,1.261,1.2612,1.2618,1.2623,1.2567,1.2567,1.2567,0,0,1.271,1.2696,1.2697,1.2685,1.2675,1.2675,1.2648,1.2649,1.2649,1.2618,1.2621,1.261,1.2597,1.2605,1.2607,1.2596,1.2626,1.2613,1.2616,1.2616,1.2621,1.2626,1.2631,1.2569,1.2569,1.2568,0,0,1.2743,1.2733,1.2739,1.2731,1.2717,1.2702,1.2704,1.2685,1.2677,1.268,1.2657,1.2657,1.265,1.2642,1.2637,1.2668,1.2651,1.2667,1.2692,1.2698,1.2703,1.2706,1.2718,1.2723,1.2669,1.267,1.267,0,1.2768,1.2766,1.2745,1.2747,1.2743,1.2716,1.2723,1.2715,1.2701,1.2698,1.2687,1.2679,1.2668,1.2674,1.2682,1.2678,1.268,1.2669,1.2704,1.2707,1.271,1.2721,1.2726,1.2672,1.2671,1.2671,1.2671,0,1.2797,1.2797,1.2804,1.2791,1.2787,1.2792,1.2771,1.277,1.2756,1.2744,1.2747,1.2733,1.2725,1.2726,1.2711,1.273,1.2724,1.2708,1.2687,1.2718,1.2728,1.2732,1.2675,1.2674,1.2673,1.2673,0,0,1.2851,1.2827,1.283,1.2825,1.2808,1.2807,1.2811,1.2804,1.2804,1.2795,1.2798,1.2794,1.278,1.2774,1.2759,1.2764,1.2791,1.2748,1.2748,1.2757,1.2812,1.2823,1.2828,1.278,1.2781,1.2781,1.2813,0,1.2881,1.2886,1.2868,1.2878,1.2878,1.2853,1.2856,1.2847,1.2835,1.2833,1.282,1.2818,1.28,1.2796,1.2801,1.2787,1.2802,1.2785,1.2783,1.2783,1.2787,1.2833,1.2846,1.2876,1.2816,1.2817,1.2818,0,1.2917,1.291,1.2921,1.2905,1.2904,1.2907,1.29,1.2898,1.2887,1.2878,1.2873,1.2856,1.2859,1.2839,1.2843,1.2832,1.283,1.2824,1.2825,1.2823,1.2802,1.2834,1.2885,1.2889,1.2823,1.2823,1.2822,0,1.2956,1.295,1.2955,1.2951,1.2932,1.2935,1.2928,1.2916,1.2913,1.2907,1.2905,1.2899,1.2895,1.2891,1.2873,1.2861,1.288,1.2859,1.2873,1.2874,1.2878,1.2878,1.2929,1.2877,1.2877,1.2877,1.2877,0,1.2991,1.2998,1.2973,1.2976,1.2984,1.2963,1.2971,1.2961,1.2951,1.2952,1.293,1.2932,1.2908,1.2907,1.2893,1.2899,1.2898,1.2891,1.2887,1.2893,1.2894,1.2891,1.2889,1.2878,1.2878,1.2877,1.2877,0,1.3035,1.3018,1.3023,1.3005,1.3001,1.3008,1.2992,1.2995,1.2983,1.2985,1.2984,1.2964,1.2962,1.2944,1.2938,1.2929,1.294,1.2932,1.2944,1.2942,1.2957,1.2956,1.3009,1.3015,1.2958,1.2959,1.2959,0,1.3059,1.3064,1.3048,1.3047,1.3041,1.304,1.3037,1.3017,1.3015,1.3004,1.3008,1.3005,1.3001,1.2999,1.2984,1.298,1.2972,1.2991,1.2971,1.2977,1.2972,1.2972,1.2973,1.2995,1.2995,1.2996,1.2996,0,1.3103,1.3095,1.3092,1.3087,1.3084,1.3079,1.3072,1.3073,1.3051,1.305,1.3048,1.3045,1.304,1.3037,1.303,1.3022,1.3006,1.3003,1.3006,1.3012,1.3018,1.3015,1.2956,1.3002,1.3001,1.3001,1.3,1.3,1.3138,1.3142,1.3131,1.3129,1.3122,1.3117,1.3118,1.3107,1.3105,1.3099,1.3087,1.3087,1.3077,1.3066,1.306,1.306,1.305,1.3055,1.3056,1.3057,1.306,1.3019,1.3059,1.3058,1.3058,1.3058,1.3058,0,1.3181,1.3173,1.3172,1.3163,1.3162,1.3147,1.3139,1.3139,1.314,1.3132,1.3129,1.3127,1.3124,1.311,1.3106,1.3109,1.3101,1.3108,1.3108,1.3106,1.3069,1.3067,1.3114,1.3114,1.3114,1.3114,1.3114,1.3114,1.3203,1.3209,1.32,1.3203,1.3194,1.3194,1.3191,1.3187,1.318,1.3179,1.3177,1.3168,1.3158,1.3153,1.315,1.3146,1.3146,1.3155,1.3149,1.3114,1.3109,1.3104,1.3101,1.3155,1.3155,1.3186,1.3186,1.3186]},{"header":{"parameterUnit":"m.s-1","parameterCategory":1,"la1":30.2991,"la2":30.254,"lo1":-89.0895,"lo2":-89.0444,"dy":0.0017,"dx":0.0017,"nx":28,"ny":28,"refTime":"2024-04-12T03:00:00:Z","depth":0,"parameterNumber":3,"parameterNumberName":"V-component_of_WINDS"},"data":[0,0,0,0,0,0,0,0,0,0,0,0,0,0,0,0,0,0,0,0,0,0,0,0,0,0,0,0,0,0,0,0,0,0,0,0,0,0,0,0,0,0,0,0,0,0,0,0,0,0,0,0,0,0,0,0,0,0,-2.3039,-2.304,0,-2.3146,-2.3147,-2.3148,-2.3151,-2.315,-2.3149,-2.3148,-2.3258,-2.3262,-2.3266,0,0,0,0,0,0,0,0,0,0,0,0,0,-2.284,-2.2843,-2.3039,-2.3041,-2.3042,-2.3146,-2.3147,-2.3149,-2.3152,-2.315,-2.3148,-2.3147,-2.3257,-2.3261,-2.3266,0,0,0,0,0,0,0,0,0,0,0,0,0,-2.2934,-2.2845,-2.3039,-2.3056,-2.3058,-2.3145,-2.3147,-2.3149,-2.3152,-2.315,-2.3148,-2.3146,-2.3255,-2.3261,-2.3267,-2.3345,0,0,-2.3286,-2.3289,0,0,0,0,0,0,0,0,-2.2929,-2.2942,-2.3052,-2.3055,-2.3058,-2.3133,-2.3117,-2.3215,-2.3153,-2.3117,-2.3148,-2.3145,-2.3218,-2.3227,-2.3252,-2.335,-2.3355,-2.3287,-2.3291,-2.3293,-2.3295,0,0,0,0,0,0,0,-2.2923,-2.2937,-2.3081,-2.3054,-2.3057,-2.3059,-2.307,-2.3136,-2.3177,-2.312,-2.312,-2.3133,-2.3219,-2.3246,-2.3254,-2.3356,-2.3287,-2.3292,-2.3296,-2.3298,-2.3525,-2.3527,0,0,0,0,0,0,-2.2912,-2.2932,-2.3078,-2.3085,-2.2987,-2.3064,-2.3076,-2.3111,-2.3176,-2.3184,-2.3134,-2.3132,-2.3236,-2.3247,-2.3258,-2.3354,-2.3293,-2.3299,-2.3303,-2.3523,-2.3525,-2.3528,0,0,0,0,0,0,-2.2908,-2.2925,-2.3074,-2.3008,-2.3027,-2.3069,-2.3108,-2.3114,-2.314,-2.3187,-2.3195,-2.3153,-2.3235,-2.3249,-2.3323,-2.3358,-2.3302,-2.3307,-2.352,-2.3524,-2.3527,-2.3546,0,0,0,0,0,0,-2.2902,-2.2924,-2.2953,-2.3009,-2.3031,-2.3137,-2.311,-2.3118,-2.3151,-2.315,-2.3207,-2.3215,-2.3234,-2.3314,-2.333,-2.3365,-2.3312,-2.3517,-2.3522,-2.3526,-2.3542,-2.3549,-2.3555,0,0,0,0,0,-2.2895,-2.2954,-2.2955,-2.2972,-2.3068,-2.3139,-2.3151,-2.3172,-2.3154,-2.3184,-2.3214,-2.3213,-2.3352,-2.3322,-2.3339,-2.3377,-2.3515,-2.352,-2.3525,-2.3539,-2.3548,-2.3555,0,0,0,0,0,0,-2.2902,-2.2962,-2.2963,-2.3042,-2.3085,-2.3139,-2.3178,-2.3181,-2.323,-2.3227,-2.3251,-2.3264,-2.3338,-2.3365,-2.3331,-2.3456,-2.3431,-2.344,-2.3436,-2.3444,-2.3451,-2.3443,-2.3318,0,0,0,0,0,-2.2912,-2.2964,-2.3014,-2.3079,-2.31,-2.3135,-2.3167,-2.3179,-2.3225,-2.3243,-2.3279,-2.3324,-2.3378,-2.3413,-2.3465,-2.3546,-2.3559,-2.3581,-2.3588,-2.3593,-2.36,-2.3646,-2.3657,-2.3545,-2.3545,-2.3545,0,0,-2.2935,-2.2974,-2.3005,-2.3081,-2.3116,-2.3169,-2.3151,-2.3208,-2.3248,-2.3252,-2.3324,-2.3352,-2.3404,-2.3482,-2.3519,-2.3507,-2.3634,-2.36,-2.3603,-2.3608,-2.3653,-2.3663,-2.3673,-2.3548,-2.3548,-2.3547,0,0,-2.3003,-2.3038,-2.3096,-2.3131,-2.3184,-2.3207,-2.3221,-2.3275,-2.3294,-2.3367,-2.3371,-2.342,-2.3512,-2.3549,-2.3579,-2.3663,-2.3664,-2.3679,-2.3714,-2.3758,-2.3767,-2.3775,-2.3805,-2.3816,-2.3686,-2.3686,-2.3687,0,-2.3024,-2.3104,-2.3125,-2.3183,-2.3216,-2.3223,-2.3282,-2.3316,-2.3383,-2.3407,-2.3393,-2.3509,-2.3544,-2.3632,-2.3652,-2.3677,-2.3694,-2.3672,-2.3764,-2.3772,-2.378,-2.3809,-2.382,-2.3688,-2.3688,-2.3688,-2.3688,0,-2.3128,-2.3184,-2.3224,-2.3289,-2.3327,-2.3385,-2.3416,-2.3452,-2.3462,-2.3487,-2.3561,-2.3604,-2.3665,-2.3687,-2.3697,-2.3776,-2.3768,-2.3759,-2.3734,-2.3792,-2.382,-2.3831,-2.369,-2.369,-2.3689,-2.3689,0,0,-2.3202,-2.3279,-2.3293,-2.3323,-2.3383,-2.3427,-2.3486,-2.3545,-2.3576,-2.3623,-2.3673,-2.3751,-2.3744,-2.3779,-2.3793,-2.3832,-2.3896,-2.3819,-2.3821,-2.3832,-2.3987,-2.3993,-2.4006,-2.3897,-2.39,-2.3901,-2.3983,0,-2.3277,-2.3381,-2.3402,-2.3493,-2.3545,-2.3552,-2.3604,-2.3646,-2.3672,-2.372,-2.3748,-2.3803,-2.3789,-2.381,-2.3849,-2.388,-2.3928,-2.3875,-2.3945,-2.3947,-2.3932,-2.402,-2.4027,-2.4102,-2.3994,-2.3996,-2.3997,0,-2.3378,-2.3427,-2.3522,-2.3576,-2.3599,-2.3644,-2.3701,-2.3747,-2.3796,-2.3812,-2.3851,-2.3862,-2.3924,-2.3896,-2.3983,-2.3946,-2.3977,-2.3997,-2.4,-2.4007,-2.3976,-2.403,-2.4126,-2.4137,-2.4014,-2.4013,-2.4012,0,-2.3423,-2.3513,-2.3582,-2.3607,-2.3671,-2.3703,-2.3732,-2.3779,-2.3813,-2.3863,-2.3886,-2.3943,-2.3974,-2.4018,-2.4044,-2.4021,-2.4129,-2.4103,-2.4144,-2.4144,-2.4166,-2.4164,-2.4268,-2.4186,-2.4185,-2.4185,-2.4185,0,-2.3504,-2.3562,-2.3603,-2.3645,-2.3711,-2.3736,-2.38,-2.3829,-2.3871,-2.3919,-2.3929,-2.3975,-2.4006,-2.4056,-2.4077,-2.4146,-2.416,-2.4175,-2.418,-2.4174,-2.4172,-2.4194,-2.4189,-2.4188,-2.4188,-2.4187,-2.4186,0,-2.3565,-2.3594,-2.367,-2.3725,-2.374,-2.3786,-2.3833,-2.3876,-2.3901,-2.3963,-2.3978,-2.4019,-2.4078,-2.4108,-2.4183,-2.4197,-2.4275,-2.4276,-2.4258,-2.426,-2.4299,-2.4295,-2.4421,-2.4439,-2.4344,-2.4345,-2.4346,0,-2.3614,-2.3659,-2.3719,-2.3752,-2.3781,-2.3834,-2.387,-2.3896,-2.3933,-2.3993,-2.4028,-2.4088,-2.4138,-2.4233,-2.4269,-2.4327,-2.433,-2.437,-2.4338,-2.4332,-2.4331,-2.4328,-2.4333,-2.4375,-2.4376,-2.4377,-2.4378,0,-2.37,-2.3712,-2.3763,-2.3819,-2.3861,-2.3907,-2.3952,-2.3979,-2.4012,-2.4053,-2.4115,-2.4153,-2.4229,-2.4289,-2.435,-2.438,-2.4385,-2.4387,-2.44,-2.4395,-2.4382,-2.439,-2.4274,-2.4384,-2.4384,-2.4383,-2.4383,-2.4383,-2.3757,-2.3797,-2.3846,-2.3902,-2.3939,-2.3981,-2.4023,-2.4054,-2.4105,-2.4169,-2.4182,-2.4247,-2.4296,-2.4377,-2.4409,-2.4461,-2.4452,-2.447,-2.4475,-2.4479,-2.4481,-2.4374,-2.4472,-2.4472,-2.4472,-2.4472,-2.4472,0,-2.3843,-2.3874,-2.3926,-2.3989,-2.4033,-2.4034,-2.4084,-2.4122,-2.4179,-2.4224,-2.4272,-2.4343,-2.4402,-2.4443,-2.4503,-2.4536,-2.454,-2.4551,-2.4549,-2.4556,-2.4485,-2.4469,-2.4547,-2.4547,-2.4547,-2.4547,-2.4547,-2.4547,-2.3892,-2.3961,-2.398,-2.4068,-2.4099,-2.4163,-2.4191,-2.4231,-2.4267,-2.4345,-2.4394,-2.442,-2.4464,-2.4528,-2.4582,-2.4592,-2.4614,-2.4625,-2.4636,-2.4569,-2.4561,-2.4553,-2.4538,-2.4629,-2.463,-2.4702,-2.4703,-2.4703]}]]